123  
ASUS41 KPHI 280912  
RWRPHI  
 
REGIONAL WEATHER ROUNDUP  
NATIONAL WEATHER SERVICE MOUNT HOLLY NJ  
500 AM EDT TUE MAR 28 2017  
 
NOTE: "FAIR" INDICATES FEW OR NO CLOUDS BELOW 12,000 FEET WITH NO  
SIGNIFICANT WEATHER AND/OR S TO VISIBILITY
.  
 
* = STATION DOES NOT REPORT PRECIPITATION (E.G. RAIN, SNOW, ETC.)  
OR FOG.
 
 
NJZ015>026-281000-  
SOUTHERN NEW JERSEY  
 
CITY SKY/WX TMP DP RH WIND PRES REMARKS
 
POMONA CLOUDY 51 47 86 E3 29.89F  
WILDWOOD* CLOUDY 56 51 84 S6 29.89F  
MILLVILLE CLOUDY 53 53 100 CALM 29.88S  
WRIGHTSTOWN CLOUDY 50 49 98 E8 29.88S  
MOUNT HOLLY CLOUDY 50 50 100 NE3 29.90S FOG  
TRENTON CLOUDY 48 47 96 NE8 29.91F  
 

 
NJZ001>014-281000-  
NORTHERN NEW JERSEY  
 
CITY SKY/WX TMP DP RH WIND PRES REMARKS
 
SUSSEX CLOUDY 44 44 100 CALM 29.93R FOG  
ANDOVER* N/A 45 43 93 CALM 29.92F  
MORRISTOWN CLOUDY 45 45 100 NE5 29.94F FOG  
NEWARK LGT RAIN 45 44 97 N10 29.95S FOG  
TETERBORO LGT RAIN 44 42 93 NE5 29.95R  
CALDWELL CLOUDY 45 43 93 E5 29.95R FOG  
SOMERVILLE CLOUDY 47 47 100 CALM 29.91F FOG  
ALLAIRE* FOG 43 43 100 NE10 29.93F VSB 1  
TOMS RIVER* RAIN 46 46 100 NE12 29.91F  
 

 
PAZ043-044-047-054-055-060>062-066>071-281000-  
EASTERN PENNSYLVANIA  
 
CITY SKY/WX TMP DP RH WIND PRES REMARKS
 
PHILADELPHIA CLOUDY 51 50 96 NE9 29.90S FOG  
NORTH PHILA CLOUDY 51 50 96 NE7 29.92S FOG  
BLUE BELL* CLOUDY 48 48 100 E6 29.89F VSB 3/4  
DOYLESTOWN CLOUDY 47 47 100 VRB3 29.90F FOG  
QUAKERTOWN* CLOUDY 48 48 100 E5 29.91F  
PERKASIE* CLOUDY 46 46 100 NE7 29.91F FOG  
POTTSTOWN CLOUDY 49 48 97 NE5 29.91S FOG  
LANCASTER CLOUDY 49 49 100 E6 29.88S FOG  
COATESVILLE FOG 50 50 100 CALM 29.90S VSB<1/4  
READING CLOUDY 50 50 100 CALM 29.89S  
ALLENTOWN CLOUDY 49 46 90 NE6 29.91S FOG  
MOUNT POCONO FOG 45 45 100 E3 29.89F VSB 1/2  
HAZLETON FOG 50 48 93 E3 29.91F VSB 1/4  
LEHIGHTON CLOUDY 45 45 100 CALM 29.92S FOG  
WILKES BARRE CLOUDY 48 47 96 CALM 29.89R FOG  
 

 
DEZALL-MDZ008-012-015-019-020-281000-  
DELAWARE AND EASTERN MARYLAND  
 
CITY SKY/WX TMP DP RH WIND PRES REMARKS
 
WILMINGTON PTCLDY 51 51 100 NE6 29.89S FOG  
DOVER CLOUDY 61 60 97 S8 29.86S  
GEORGETOWN CLOUDY 60 53 77 S7 29.89S  
EASTON CLOUDY 63 55 74 S5 29.90S  
ABERDEEN MOCLDY 52 51 98 NE3 29.87F  
PATUXENT CLOUDY 56 53 90 SE7 29.86F  
OCEAN CITY PTCLDY 51 48 89 SW7 29.91S  
WALLOPS ISLAND CLEAR 52 51 97 S10 29.92S  
CAMBRIDGE CLOUDY 57 54 88 S8 29.87F  
SALISBURY MOCLDY 59 54 83 S8 29.89S  
 

 
PAZ001-021-NYZ056-072-MDZ011-DCZ001-281000-  
OTHER NEARBY LOCATIONS  
 
CITY SKY/WX TMP DP RH WIND PRES REMARKS
 
HARRISBURG CLOUDY 51 50 96 CALM 29.87S FOG  
STATE COLLEGE CLOUDY 48 47 97 CALM 29.86S FOG  
WILLIAMSPORT CLOUDY 44 44 100 CALM 29.86F  
BINGHAMTON MOCLDY 44 43 96 S5 29.87F  
NEW YORK CITY LGT RAIN 43 42 97 NE7 29.97S FOG  
BALTIMORE MOCLDY 53 53 100 CALM 29.85F  
WASHINGTON DC LGT RAIN 61 57 87 S3 29.85S  
 

 
 
 
CLICK HERE TO GO TO PREVIOUS BULLETINS.

The Nexlab PA Page
The Nexlab NJ Page
The Nexlab DE Page
The Nexlab MD Page Main Text Page